FW6971 Weather Reports


Display with metric or nautical units.
time (UTC)temp
F
wind
direction
speed
MPH
gust
MPH
rain 1hr
in
rain 24hr
in
rain mn
in
humidity
%
barometer
mb
20260508033029 43 244 1.0 3.0 0.00 0.85 0.00 99 1001.9
20260508031527 43 242 3.0 6.0 0.00 0.85 0.00 99 1002.0
20260508030029 43 229 2.0 6.0 0.00 0.85 0.00 99 1002.3
20260508024528 43 248 3.0 7.0 0.00 0.85 0.85 99 1001.9
20260508023035 43 221 5.0 8.0 0.00 0.85 0.85 99 1001.8
20260508021527 43 236 3.0 8.0 0.00 0.85 0.85 99 1001.9
20260508020028 42 228 4.0 9.0 0.00 0.85 0.85 99 1002.1
20260508014528 42 225 6.0 10.0 0.00 0.85 0.85 99 1002.3
20260508013028 43 201 3.0 7.0 0.00 0.85 0.85 99 1002.2
20260508011529 43 175 2.0 6.0 0.00 0.85 0.85 99 1002.3
20260508010030 43 220 3.0 11.0 0.00 0.85 0.85 99 1002.0
20260508004606 43 200 5.0 12.0 0.00 0.85 0.85 99 1002.4
20260508004532 43 200 5.0 12.0 0.00 0.85 0.85 99 1002.4
20260508003032 43 207 5.0 11.0 0.00 0.85 0.85 99 1002.7
20260508001544 43 209 4.0 9.0 0.00 0.85 0.85 99 1002.7
20260508000027 43 196 4.0 13.0 0.00 0.85 0.85 99 1002.9
20260507234529 43 198 7.0 12.0 0.00 0.85 0.85 99 1003.0
20260507233034 43 195 6.0 14.0 0.00 0.85 0.85 98 1002.8
20260507231531 44 204 7.0 14.0 0.00 0.85 0.85 98 1003.1
20260507230035 44 221 5.0 13.0 0.00 0.85 0.85 98 1003.0
20260507224533 45 219 6.0 12.0 0.01 0.85 0.85 98 1003.1
20260507223027 45 240 4.0 11.0 0.01 0.85 0.85 99 1003.3
20260507221528 46 126 6.0 12.0 0.01 0.85 0.85 99 1003.3
20260507220031 46 217 4.0 11.0 0.05 0.85 0.85 99 1003.7
20260507214530 46 147 5.0 15.0 0.09 0.84 0.84 99 1003.4
20260507213036 46 136 6.0 10.0 0.16 0.84 0.84 99 1002.9
20260507211543 46 165 5.0 13.0 0.23 0.83 0.83 98 1003.8
20260507210028 46 221 5.0 16.0 0.30 0.80 0.80 99 1004.2
20260507204528 46 180 5.0 15.0 0.43 0.75 0.75 99 1004.5
20260507203028 45 174 4.0 15.0 0.44 0.67 0.67 98 1005.2
20260507201536 45 226 12.0 17.0 0.42 0.58 0.58 98 1005.3
20260507200034 45 135 7.0 19.0 0.36 0.49 0.49 98 1004.9
20260507194527 45 200 5.0 11.0 0.23 0.31 0.31 98 1005.5
20260507193028 45 94 6.0 18.0 0.16 0.22 0.22 98 1005.4
20260507191530 45 174 8.0 18.0 0.13 0.17 0.17 98 1005.6
20260507190028 46 173 7.0 19.0 0.10 0.12 0.12 98 1006.2
20260507184527 46 173 7.0 25.0 0.07 0.08 0.08 98 1006.0
20260507183032 46 177 9.0 23.0 0.04 0.05 0.05 98 1005.9
20260507181528 46 171 10.0 24.0 0.03 0.04 0.04 98 1006.1
20260507180043 46 136 9.0 24.0 0.01 0.02 0.02 98 1006.0
20260507174532 46 162 10.0 20.0 0.00 0.01 0.01 98 1006.3
20260507173030 46 184 10.0 21.0 0.00 0.01 0.01 98 1006.8
20260507171526 46 188 8.0 21.0 0.00 0.01 0.01 98 1007.1
20260507170044 46 196 11.0 23.0 0.00 0.01 0.01 98 1007.2
20260507164530 47 117 10.0 21.0 0.00 0.01 0.01 98 1007.6
20260507163027 47 196 10.0 24.0 0.00 0.01 0.01 98 1007.9
20260507161530 46 161 10.0 23.0 0.00 0.01 0.01 98 1008.3
20260507160029 46 164 8.0 19.0 0.00 0.01 0.01 98 1008.8
20260507154528 46 335 9.0 21.0 0.00 0.01 0.01 98 1009.2
20260507153027 46 207 7.0 22.0 0.00 0.01 0.01 98 1009.4
20260507151528 47 206 10.0 19.0 0.00 0.01 0.01 98 1009.8
20260507150028 46 207 8.0 22.0 0.01 0.01 0.01 98 1009.9
20260507144528 47 169 9.0 23.0 0.01 0.01 0.01 98 1010.2
20260507143030 47 155 8.0 20.0 0.01 0.01 0.01 98 1010.5
20260507141528 45 167 8.0 16.0 0.01 0.01 0.01 98 1011.1
20260507140035 46 177 11.0 23.0 0.00 0.00 0.00 97 1011.5
20260507134526 46 208 9.0 23.0 0.00 0.00 0.00 97 1011.4
20260507133028 47 184 12.0 23.0 0.00 0.00 0.00 97 1011.2
20260507131535 47 221 10.0 28.0 0.00 0.00 0.00 98 1011.5
20260507130031 46 180 10.0 22.0 0.00 0.00 0.00 98 1011.2
20260507124530 46 191 10.0 19.0 0.00 0.00 0.00 98 1011.8
20260507123028 45 179 10.0 17.0 0.00 0.00 0.00 97 1011.8
20260507121526 45 168 10.0 24.0 0.00 0.00 0.00 97 1012.6
20260507120028 45 201 9.0 21.0 0.00 0.00 0.00 97 1013.0
20260507114529 46 207 8.0 21.0 0.00 0.00 0.00 97 1013.2
20260507113028 46 173 8.0 22.0 0.00 0.00 0.00 98 1013.0
20260507111528 46 177 7.0 20.0 0.00 0.00 0.00 98 1013.3
20260507110031 47 153 8.0 21.0 0.00 0.00 0.00 98 1013.1
20260507104531 46 192 7.0 18.0 0.00 0.00 0.00 98 1013.2
20260507083026 44 335 7.0 13.0 0.00 0.00 0.00 97 1014.2
20260507081529 44 200 5.0 13.0 0.00 0.00 0.00 97 1014.0
20260507080027 44 210 6.0 15.0 0.00 0.00 0.00 96 1014.3
20260507074529 45 215 9.0 13.0 0.00 0.00 0.00 96 1014.4
20260507073027 45 248 8.0 17.0 0.00 0.00 0.00 96 1014.5
20260507071529 46 246 11.0 18.0 0.00 0.00 0.00 96 1014.7
20260507070028 46 204 7.0 19.0 0.00 0.00 0.00 96 1015.0
20260507064529 47 225 6.0 15.0 0.00 0.00 0.00 96 1015.1
20260507063027 47 206 9.0 18.0 0.00 0.00 0.00 96 1015.3
20260507061529 46 213 7.0 13.0 0.00 0.00 0.00 96 1015.6
20260507060026 47 171 7.0 12.0 0.00 0.00 0.00 97 1015.8
20260507054525 47 214 3.0 9.0 0.00 0.00 0.00 97 1016.0
20260507053030 47 215 4.0 10.0 0.00 0.00 0.00 97 1016.1
20260507051526 47 184 6.0 11.0 0.00 0.00 0.00 97 1016.6
20260507050040 48 335 4.0 10.0 0.00 0.00 0.00 97 1016.8
20260507044526 48 244 8.0 12.0 0.00 0.00 0.00 97 1017.1
20260507043030 48 231 7.0 15.0 0.00 0.00 0.00 97 1017.3
20260507041528 48 200 8.0 13.0 0.00 0.00 0.00 97 1017.5
20260507040026 48 221 6.0 11.0 0.00 0.00 0.00 97 1017.9
20260507034529 47 213 6.0 12.0 0.00 0.00 0.00 97 1018.0